Regional Weather Roundup
Issued by NWS Jackson, KY

Home | Current Version | Previous Version | Graphics & Text | Print | Product List | Glossary On
Versions: 1 2 3 4 5 6 7 8 9 10 11 12 13 14 15 16 17 18 19 20 21 22 23 24 25 26 27 28 29 30 31 32 33 34 35 36 37 38 39 40 41 42 43 44 45 46 47 48 49 50
000
ASUS43 KJKL 270710
RWRJKL

EAST KENTUCKY HOURLY WEATHER ROUNDUP
NATIONAL WEATHER SERVICE JACKSON KY
300 AM EDT MON MAR 27 2017

NOTE: "FAIR" INDICATES FEW OR NO CLOUDS BELOW 12,000 FEET WITH
NO SIGNIFICANT WEATHER AND/OR OBSTRUCTIONS TO VISIBILITY.

* THESE REPORTS ARE NOT UNDER NWS QUALITY CONTROL AND MAY NOT
  REPORT WEATHER SUCH AS PRECIPITATION AND FOG.

KYZ079-080-083-085-087-088-110-112-115-119-120-270800
...EASTERN KENTUCKY...

CITY           SKY/WX    TMP DP  RH WIND       PRES   REMARKS
JACKSON        CLEAR     58  54  86 SW3       30.00F
LONDON         CLEAR     58  51  78 SW3       30.01S
SOMERSET*      CLOUDY    55  50  82 CALM      30.01S
MONTICELLO*    PTCLDY    53  49  86 W9        30.01S
WILLIAMSBURG*  SUNNY     59  54  82 SW3       30.01S
MIDDLESBORO*   PTCLDY    50  50 100 CALM      30.02F
HARLAN APT*    MOSUNNY   59  48  67 CALM      30.02F
PIKE CO APT*     N/A     58  58 100 CALM      30.00F
BIG SANDY APT* SUNNY     57  56  97 CALM      30.00F
MOREHEAD APT*  CLOUDY    57  55  94 CALM      30.01S
ASHLAND*       CLOUDY    55  54  94 CALM      29.97S
$$

KYZ035-036-041-042-044-050-067-078-099-270800
...CENTRAL KENTUCKY...

CITY           SKY/WX    TMP DP  RH WIND       PRES   REMARKS
MT STERLING*   PTCLDY    55  55 100 CALM      30.01R
FLEMING/MASON* CLOUDY    55  54  96 W5        30.00S
DANVILLE*      CLOUDY    54  52  94 CALM      30.01S
LEXINGTON      CLOUDY    55  52  89 CALM      29.99S
FRANKFORT      MOCLDY    53  49  86 CALM      29.98R
LOUISVILLE     PTCLDY    54  48  80 CALM      29.97F
LEBANON*         N/A     55  52  88 CALM      30.00S
GLASGOW*       PTCLDY    52  52 100 CALM      29.99S
BOWLING GREEN  CLEAR     52  49  89 CALM      29.98F
$$

KYZ091>093-OHZ055-061-077-WVZ005-015-034-035-042-270800
...SOUTHERN OHIO/WEST VIRGINIA...

CITY           SKY/WX    TMP DP  RH WIND       PRES   REMARKS
COVINGTON      PTCLDY    49  49 100 SW6       29.96S
COLUMBUS       CLEAR     54  52  93 SW6       29.94S
DAYTON         CLEAR     51  49  92 S8        29.95R
WILMINGTON     CLEAR     50  50 100 CALM      29.95F FOG
HUNTINGTON     LGT RAIN  59  55  87 SW3       29.98S
CHARLESTON     CLOUDY    58  54  86 S3        29.98F
PINEVILLE*     MOCLDY    53  51  91 MISG      30.08F FOG
BECKLEY        CLOUDY    55  52  89 S6        30.05F
LOGAN CO APT*    N/A     57  55  94 CALM      30.01F
$$

VAZ002-007-008-TNZ017-027-036-066-071-270800
...SOUTHWEST VIRGINIA/EAST TENNESSEE...

CITY           SKY/WX    TMP DP  RH WIND       PRES   REMARKS
WISE*          PTCLDY    55  50  82 S5        30.07F
JONESVILLE*      N/A     54  54 100 CALM      30.05F
ABINGDON*      CLOUDY    57  53  86 CALM      30.06F
BRISTOL        MOCLDY    57  53  86 CALM      30.05F
MORRISTOWN*    CLOUDY    57  55  94 CALM      30.02F
SEVIERVILLE*   SUNNY     54  50  87 CALM      30.02F
KNOXVILLE      PTCLDY    59  52  77 S3        30.01F
LAFOLLETTE*    SUNNY     54  50  87 CALM      30.05R
OAK RIDGE      PTCLDY    55  51  86 CALM      30.03F
CROSSVILLE     CLOUDY    55  51  86 CALM      30.04F
NASHVILLE      MOCLDY    61  54  77 SE6       29.98S
$$

...KEY TO REMARKS...
VSB - VISIBILITY IN MILES
WCI - WIND CHILL INDEX
HX  - HEAT INDEX

$$



USA.gov is the U.S. government's official web portal to all federal, state and local government web resources and services.